TimeEDT,TemperatureF,Dew PointF,Humidity,Sea Level PressureIn,VisibilityMPH,Wind Direction,Wind SpeedMPH,Gust SpeedMPH,PrecipitationIn,Events,Conditions,WindDirDegrees,DateUTC
12:54 AM,64.0,61.0,90,29.99,10.0,Calm,Calm,-,N/A,,Clear,0,2013-05-22 04:54:00
1:54 AM,64.0,61.0,90,29.99,10.0,Calm,Calm,-,N/A,,Scattered Clouds,0,2013-05-22 05:54:00
2:05 AM,64.4,60.8,88,30.06,10.0,Calm,Calm,-,N/A,,Mostly Cloudy,0,2013-05-22 06:05:00
2:27 AM,64.4,60.8,88,30.05,10.0,Calm,Calm,-,N/A,,Scattered Clouds,0,2013-05-22 06:27:00
2:54 AM,64.0,60.1,87,29.97,10.0,Calm,Calm,-,N/A,,Clear,0,2013-05-22 06:54:00
3:54 AM,62.1,60.1,93,29.94,10.0,Calm,Calm,-,N/A,,Clear,0,2013-05-22 07:54:00
4:54 AM,61.0,59.0,93,29.95,8.0,Calm,Calm,-,N/A,,Partly Cloudy,0,2013-05-22 08:54:00
5:49 AM,60.8,59.0,94,30.02,6.0,SSE,3.5,-,N/A,,Partly Cloudy,150,2013-05-22 09:49:00
5:54 AM,60.1,59.0,96,29.96,6.0,Calm,Calm,-,N/A,,Scattered Clouds,0,2013-05-22 09:54:00
6:54 AM,61.0,59.0,93,29.98,9.0,SE,3.5,-,N/A,,Clear,140,2013-05-22 10:54:00
7:54 AM,63.0,61.0,93,30.00,10.0,SSE,3.5,-,N/A,,Scattered Clouds,160,2013-05-22 11:54:00
8:54 AM,66.9,62.1,84,29.99,10.0,Variable,3.5,-,N/A,,Clear,0,2013-05-22 12:54:00
9:54 AM,71.1,64.0,78,29.98,10.0,South,3.5,-,N/A,,Clear,170,2013-05-22 13:54:00
10:54 AM,77.0,64.9,66,29.97,9.0,SSW,8.1,-,N/A,,Clear,210,2013-05-22 14:54:00
11:54 AM,80.1,63.0,56,29.96,10.0,South,11.5,20.7,N/A,,Clear,190,2013-05-22 15:54:00
11:55 AM,80.6,64.4,58,30.04,10.0,SSW,10.4,20.7,N/A,Thunderstorm,Clear,200,2013-05-22 15:55:00
11:57 AM,80.6,64.4,58,30.04,10.0,SSW,12.7,-,N/A,Thunderstorm,Partly Cloudy,210,2013-05-22 15:57:00
11:58 AM,80.6,64.4,58,30.04,10.0,SSW,13.8,-,N/A,Thunderstorm,Thunderstorm,210,2013-05-22 15:58:00
12:54 PM,75.0,55.9,51,29.96,10.0,Variable,5.8,-,N/A,Thunderstorm,Thunderstorm,0,2013-05-22 16:54:00
12:59 PM,75.2,57.2,53,30.03,10.0,Variable,3.5,-,N/A,,Partly Cloudy,0,2013-05-22 16:59:00
1:54 PM,77.0,57.9,52,29.93,10.0,Variable,6.9,-,N/A,,Clear,0,2013-05-22 17:54:00
2:54 PM,78.1,64.9,64,29.92,10.0,SE,9.2,-,N/A,,Partly Cloudy,140,2013-05-22 18:54:00
3:54 PM,73.9,55.9,53,29.90,10.0,North,5.8,-,N/A,,Overcast,360,2013-05-22 19:54:00
4:54 PM,75.9,64.9,69,29.87,10.0,South,15.0,23.0,0.00,,Mostly Cloudy,180,2013-05-22 20:54:00
4:59 PM,75.2,62.6,65,29.96,9.0,SW,12.7,23.0,0.00,Rain-Thunderstorm,Light Thunderstorms and Rain,220,2013-05-22 20:59:00
5:54 PM,66.9,61.0,81,29.90,10.0,SSE,5.8,16.1,0.06,Rain-Thunderstorm,Light Thunderstorms and Rain,150,2013-05-22 21:54:00
6:54 PM,66.9,63.0,87,29.93,10.0,SE,4.6,-,0.00,Thunderstorm,Thunderstorm,140,2013-05-22 22:54:00
7:07 PM,66.2,62.6,88,29.97,10.0,SSE,4.6,-,N/A,,Mostly Cloudy,160,2013-05-22 23:07:00
7:54 PM,66.0,63.0,90,29.92,10.0,SSE,4.6,-,N/A,,Partly Cloudy,160,2013-05-22 23:54:00
8:54 PM,64.9,63.0,93,29.93,10.0,East,3.5,-,0.01,,Scattered Clouds,100,2013-05-23 00:54:00
9:40 PM,64.4,62.6,94,30.00,10.0,SW,4.6,-,N/A,,Overcast,220,2013-05-23 01:40:00
9:50 PM,64.4,62.6,94,30.01,1.5,West,15.0,25.3,0.04,Rain,Heavy Rain,260,2013-05-23 01:50:00
9:54 PM,66.0,59.0,78,29.94,1.0,WSW,6.9,25.3,0.23,Rain,Heavy Rain,240,2013-05-23 01:54:00
10:11 PM,62.6,60.8,94,30.02,1.5,SSE,5.8,-,0.40,Rain,Heavy Rain,160,2013-05-23 02:11:00
10:15 PM,62.6,60.8,94,30.02,3.0,SE,5.8,-,0.41,Rain,Rain,140,2013-05-23 02:15:00
10:54 PM,63.0,62.1,97,29.96,7.0,Calm,Calm,-,0.48,Rain,Light Rain,0,2013-05-23 02:54:00
11:02 PM,62.6,62.6,100,30.02,10.0,SSE,3.5,-,0.00,,Overcast,150,2013-05-23 03:02:00
11:19 PM,62.6,62.6,100,30.02,10.0,SSE,4.6,-,0.00,Thunderstorm,Mostly Cloudy,150,2013-05-23 03:19:00
11:46 PM,62.6,60.8,94,30.02,10.0,SE,3.5,-,0.00,Rain,Light Rain,130,2013-05-23 03:46:00
11:54 PM,63.0,61.0,93,29.94,9.0,Calm,Calm,-,0.01,Rain-Thunderstorm,Rain,0,2013-05-23 03:54:00